Home   Weather   Reinach   Past weeks

Flag for Switzerland Past Weather in Reinach, Basel-Land, Switzerland — Yesterday and Last 2 Weeks

Now
32 °F

Scattered clouds.


Feels Like: 26 °F
Forecast: 24 / 39 °F
Wind: 7 mph from South

Location: Bale-Mulhouse

Current Time: Dec 10, 2016 at 9:58:08 am

Latest Report: Dec 10, 2016 at 9:00 am


Visibility: 6 mi

Pressure: 30.43 "Hg

Humidity: 86%

Dew Point: 28 °F

Location of ReinachLocation

Past Weather in Reinach — Graph

°F

Reinach Temperature Yesterday

Maximum temperature yesterday: 46 °F (at 2:00 pm)
Minimum temperature yesterday: 29 °F (at 6:00 am)
Average temperature yesterday: 35 °F

High & Low Weather Summary for the Past Weeks

 TemperatureHumidityPressure
High49 °F (Nov 26, 1:00 pm)100% (Dec 3, 3:00 am)30.63 "Hg (Dec 3, 3:00 am)
Low21 °F (Nov 29, 4:00 am)43% (Nov 28, 2:00 pm)29.90 "Hg (Nov 25, 8:00 am)
Average34 °F87%30.34 "Hg
* Reported Nov 25 8:00 am — Dec 10 8:00 am, Reinach, Weather by CustomWeather, © 2016

Note: Actual official high and low records may vary slightly from our data, if they occured in-between our weather recording intervals... More about our weather records

Advertising

Reinach Weather History for the Previous 24 Hours

Scroll right to see more
 ConditionsComfort  
Time TempWeatherWind HumidityBarometerVisibility
8:00 am
Sat, Dec 10
30 °FPassing clouds.8 mph89%30.43 "Hg7 mi
7:00 am31 °FPassing clouds.7 mph88%30.43 "Hg6 mi
5:00 am31 °FOvercast.7 mph87%30.43 "Hg6 mi
4:00 am29 °FChilly.6 mph88%30.45 "Hg7 mi
3:00 am31 °FChilly.6 mph81%30.46 "Hg9 mi
2:00 am33 °FChilly.7 mph85%30.45 "Hg7 mi
1:00 am33 °FChilly.6 mph84%30.45 "Hg7 mi
12:00 am34 °FPassing clouds.7 mph85%30.47 "Hg7 mi
11:00 pm
Fri, Dec 9
34 °FPassing clouds.5 mph84%30.49 "Hg7 mi
10:00 pm35 °FPassing clouds.6 mph82%30.49 "Hg7 mi
9:00 pm36 °FPassing clouds.5 mph79%30.49 "Hg7 mi
8:00 pm37 °FOvercast.5 mph79%30.50 "Hg7 mi
7:00 pm37 °FOvercast.3 mph80%30.50 "Hg6 mi
6:00 pm39 °FOvercast.5 mph75%30.50 "Hg9 mi
5:00 pm41 °FOvercast.6 mph71%30.51 "Hg9 mi
4:00 pm43 °FOvercast.3 mph65%30.51 "Hg11 mi
3:00 pm45 °FOvercast.3 mph61%30.50 "Hg11 mi
2:00 pm46 °FOvercast.6 mph55%30.50 "Hg11 mi
1:00 pm44 °FOvercast.7 mph61%30.53 "Hg11 mi
12:00 pm40 °FOvercast.6 mph67%30.55 "Hg11 mi
11:00 am36 °FOvercast.9 mph80%30.58 "Hg6 mi
10:00 am34 °FOvercast.7 mph83%30.58 "Hg6 mi
9:00 am31 °FOvercast.6 mph88%30.58 "Hg6 mi
Weather by CustomWeather, © 2016

See weather overviewHow to use our weather pages